| time (UTC) | temp F | wind direction | speed MPH | gust MPH | rain 1hr in | rain 24hr in | rain mn in | humidity % | barometer mb |
| 20260509195009 | 75 | 351 | 2.0 | 5.0 | 0.14 | 0.67 | 0.18 | 92 | 992.0 |
| 20260509194007 | 76 | 55 | 3.0 | 9.0 | 0.14 | 0.67 | 0.18 | 90 | 991.2 |
| 20260509193007 | 78 | 211 | 2.0 | 5.0 | 0.04 | 0.58 | 0.08 | 82 | 991.0 |
| 20260509192005 | 80 | 30 | 1.0 | 3.0 | 0.03 | 0.57 | 0.07 | 80 | 991.1 |
| 20260509191019 | 80 | 273 | 1.0 | 3.0 | 0.00 | 0.54 | 0.04 | 77 | 992.2 |
| 20260509190452 | 80 | 12 | 1.0 | 4.0 | 0.00 | 0.54 | 0.04 | 76 | 991.8 |
| 20260509185034 | 81 | 256 | 1.0 | 3.0 | 0.00 | 0.54 | 0.04 | 74 | 994.3 |
| 20260509184449 | 82 | 278 | 2.0 | 6.0 | 0.00 | 0.54 | 0.04 | 74 | 995.0 |
| 20260509183003 | 82 | 199 | 2.0 | 6.0 | 0.00 | 0.54 | 0.04 | 72 | 998.0 |
| 20260509182449 | 82 | 217 | 1.0 | 3.0 | 0.00 | 0.54 | 0.04 | 71 | 1001.2 |
| 20260509181449 | 82 | 0 | 1.0 | 4.0 | 0.00 | 0.54 | 0.04 | 72 | 1001.3 |
| 20260509180442 | 82 | 48 | 2.0 | 4.0 | 0.00 | 0.54 | 0.04 | 74 | 1002.3 |
| 20260509175000 | 82 | 59 | 2.0 | 5.0 | 0.00 | 0.54 | 0.04 | 73 | 1005.1 |
| 20260509174001 | 81 | 357 | 2.0 | 4.0 | 0.00 | 0.54 | 0.04 | 75 | 1002.2 |
| 20260509173001 | 82 | 6 | 2.0 | 4.0 | 0.00 | 0.54 | 0.04 | 75 | 1001.1 |
| 20260509172445 | 82 | 241 | 1.0 | 3.0 | 0.00 | 0.54 | 0.04 | 75 | 1001.7 |
| 20260509171001 | 81 | 0 | 1.0 | 3.0 | 0.00 | 0.54 | 0.04 | 76 | 1002.6 |
| 20260509165958 | 80 | 263 | 1.0 | 3.0 | 0.00 | 0.54 | 0.04 | 78 | 1003.1 |
| 20260509164958 | 79 | 29 | 2.0 | 4.0 | 0.00 | 0.54 | 0.04 | 79 | 999.9 |
| 20260509163959 | 79 | 120 | 1.0 | 4.0 | 0.00 | 0.54 | 0.04 | 78 | 1001.4 |
| 20260509162959 | 78 | 120 | 2.0 | 5.0 | 0.00 | 0.54 | 0.04 | 80 | 1001.4 |
| 20260509161959 | 78 | 243 | 2.0 | 5.0 | 0.00 | 0.54 | 0.04 | 81 | 1000.3 |
| 20260509160959 | 78 | 322 | 1.0 | 3.0 | 0.00 | 0.54 | 0.04 | 81 | 1001.4 |
| 20260509155959 | 77 | 211 | 1.0 | 3.0 | 0.00 | 0.54 | 0.04 | 82 | 998.3 |
| 20260509154958 | 76 | 87 | 2.0 | 4.0 | 0.00 | 0.54 | 0.04 | 82 | 996.5 |
| 20260509153958 | 77 | 61 | 2.0 | 4.0 | 0.00 | 0.54 | 0.04 | 81 | 996.0 |
| 20260509152958 | 77 | 343 | 2.0 | 4.0 | 0.00 | 0.54 | 0.04 | 81 | 996.7 |
| 20260509151958 | 78 | 34 | 2.0 | 4.0 | 0.00 | 0.54 | 0.04 | 80 | 997.9 |
| 20260509150957 | 78 | 43 | 2.0 | 5.0 | 0.00 | 0.54 | 0.04 | 81 | 1000.6 |
| 20260509145958 | 77 | 40 | 2.0 | 5.0 | 0.00 | 0.54 | 0.04 | 81 | 1002.8 |
| 20260509145432 | 77 | 354 | 1.0 | 3.0 | 0.00 | 0.54 | 0.04 | 81 | 1000.5 |
| 20260509143958 | 76 | 32 | 1.0 | 3.0 | 0.00 | 0.54 | 0.04 | 81 | 999.5 |
| 20260509142957 | 76 | 0 | 1.0 | 4.0 | 0.00 | 0.54 | 0.04 | 81 | 998.3 |
| 20260509141955 | 76 | 15 | 2.0 | 4.0 | 0.00 | 0.54 | 0.04 | 81 | 998.7 |
| 20260509140954 | 76 | 32 | 1.0 | 3.0 | 0.00 | 0.54 | 0.04 | 82 | 1001.1 |
| 20260509135955 | 75 | 288 | 2.0 | 4.0 | 0.00 | 0.54 | 0.04 | 83 | 1000.1 |
| 20260509134954 | 75 | 52 | 1.0 | 2.0 | 0.00 | 0.54 | 0.04 | 84 | 997.5 |
| 20260509133955 | 74 | 248 | 1.0 | 2.0 | 0.00 | 0.54 | 0.04 | 85 | 997.3 |
| 20260509132955 | 74 | 347 | 1.0 | 2.0 | 0.00 | 0.54 | 0.04 | 85 | 995.6 |
| 20260509131953 | 73 | 350 | 1.0 | 2.0 | 0.00 | 0.54 | 0.04 | 86 | 995.5 |
| 20260509131429 | 73 | 0 | 1.0 | 3.0 | 0.00 | 0.54 | 0.04 | 87 | 994.9 |
| 20260509125950 | 73 | 51 | 2.0 | 4.0 | 0.00 | 0.54 | 0.04 | 87 | 994.7 |
| 20260509124949 | 73 | 52 | 2.0 | 3.0 | 0.00 | 0.54 | 0.04 | 88 | 994.7 |
| 20260509123949 | 72 | 56 | 2.0 | 4.0 | 0.00 | 0.54 | 0.04 | 88 | 994.6 |
| 20260509122950 | 72 | 46 | 2.0 | 8.0 | 0.00 | 0.54 | 0.04 | 88 | 994.3 |
| 20260509122429 | 73 | 0 | 2.0 | 5.0 | 0.00 | 0.54 | 0.04 | 88 | 993.9 |
| 20260509120950 | 73 | 136 | 1.0 | 2.0 | 0.00 | 0.54 | 0.04 | 89 | 994.2 |
| 20260509115948 | 73 | 18 | 1.0 | 3.0 | 0.00 | 0.54 | 0.04 | 90 | 994.5 |
| 20260509114949 | 72 | 292 | 1.0 | 3.0 | 0.00 | 0.54 | 0.04 | 90 | 993.9 |
| 20260509113949 | 71 | 354 | 1.0 | 2.0 | 0.00 | 0.54 | 0.04 | 91 | 992.6 |
| 20260509112949 | 71 | 0 | 0.0 | 2.0 | 0.00 | 0.54 | 0.04 | 92 | 990.8 |
| 20260509112425 | 70 | 265 | 1.0 | 4.0 | 0.00 | 0.54 | 0.04 | 92 | 990.2 |
| 20260509110949 | 70 | 19 | 1.0 | 3.0 | 0.00 | 0.54 | 0.04 | 92 | 989.4 |
| 20260509105949 | 70 | 3 | 2.0 | 6.0 | 0.00 | 0.54 | 0.04 | 92 | 989.1 |
| 20260509104949 | 70 | 197 | 3.0 | 8.0 | 0.00 | 0.54 | 0.04 | 92 | 988.5 |
| 20260509103945 | 69 | 203 | 3.0 | 8.0 | 0.00 | 0.54 | 0.04 | 92 | 988.0 |
| 20260509102945 | 69 | 221 | 4.0 | 8.0 | 0.00 | 0.54 | 0.04 | 93 | 987.8 |
| 20260509101945 | 69 | 129 | 4.0 | 8.0 | 0.00 | 0.54 | 0.04 | 94 | 987.7 |
| 20260509100946 | 69 | 183 | 4.0 | 9.0 | 0.00 | 0.54 | 0.04 | 94 | 987.8 |
| 20260509100426 | 68 | 183 | 4.0 | 9.0 | 0.00 | 0.54 | 0.04 | 95 | 987.7 |
| 20260509094946 | 68 | 181 | 3.0 | 7.0 | 0.00 | 0.54 | 0.04 | 95 | 987.8 |
| 20260509093947 | 68 | 159 | 2.0 | 4.0 | 0.00 | 0.54 | 0.04 | 95 | 988.0 |
| 20260509093430 | 68 | 216 | 1.0 | 3.0 | 0.00 | 0.54 | 0.04 | 95 | 988.1 |
| 20260509091942 | 68 | 223 | 2.0 | 3.0 | 0.00 | 0.54 | 0.04 | 95 | 988.2 |
| 20260509091417 | 68 | 216 | 2.0 | 4.0 | 0.00 | 0.54 | 0.04 | 95 | 988.0 |
| 20260509090414 | 68 | 219 | 1.0 | 3.0 | 0.00 | 0.54 | 0.04 | 95 | 988.2 |
| 20260509084941 | 68 | 195 | 1.0 | 4.0 | 0.00 | 0.54 | 0.04 | 95 | 988.0 |
| 20260509083941 | 68 | 202 | 1.0 | 4.0 | 0.00 | 0.54 | 0.04 | 95 | 987.9 |
| 20260509083436 | 68 | 192 | 2.0 | 4.0 | 0.00 | 0.54 | 0.04 | 96 | 988.0 |
| 20260509082420 | 67 | 82 | 2.0 | 4.0 | 0.00 | 0.54 | 0.04 | 96 | 988.1 |
| 20260509080939 | 68 | 106 | 3.0 | 6.0 | 0.00 | 0.54 | 0.04 | 96 | 988.5 |
| 20260509075940 | 67 | 112 | 2.0 | 7.0 | 0.00 | 0.54 | 0.04 | 97 | 988.6 |
| 20260509074940 | 67 | 214 | 3.0 | 6.0 | 0.00 | 0.54 | 0.04 | 97 | 988.6 |
| 20260509073940 | 67 | 200 | 2.0 | 5.0 | 0.00 | 0.54 | 0.04 | 97 | 988.5 |
| 20260509073416 | 67 | 107 | 2.0 | 4.0 | 0.00 | 0.54 | 0.04 | 97 | 988.6 |
| 20260509071940 | 67 | 193 | 2.0 | 6.0 | 0.00 | 0.54 | 0.04 | 97 | 989.0 |
| 20260509071413 | 67 | 185 | 2.0 | 5.0 | 0.00 | 0.54 | 0.04 | 97 | 989.2 |
| 20260509065940 | 67 | 185 | 2.0 | 3.0 | 0.00 | 0.54 | 0.04 | 97 | 989.0 |
| 20260509065418 | 68 | 211 | 2.0 | 4.0 | 0.00 | 0.54 | 0.04 | 97 | 988.9 |
| 20260509063936 | 68 | 231 | 2.0 | 3.0 | 0.00 | 0.54 | 0.04 | 97 | 989.5 |
| 20260509062936 | 68 | 91 | 1.0 | 3.0 | 0.00 | 0.54 | 0.04 | 97 | 989.8 |
| 20260509061936 | 68 | 215 | 2.0 | 4.0 | 0.00 | 0.54 | 0.04 | 97 | 989.9 |
| 20260509060937 | 68 | 216 | 2.0 | 5.0 | 0.00 | 0.54 | 0.04 | 96 | 990.0 |
| 20260509055936 | 67 | 238 | 3.0 | 6.0 | 0.00 | 0.54 | 0.04 | 96 | 990.3 |
| 20260509054934 | 67 | 74 | 2.0 | 5.0 | 0.00 | 0.54 | 0.04 | 96 | 990.0 |
| 20260509053935 | 67 | 86 | 1.0 | 3.0 | 0.00 | 0.54 | 0.04 | 96 | 990.0 |
| 20260509052933 | 67 | 141 | 2.0 | 4.0 | 0.00 | 0.54 | 0.04 | 96 | 990.0 |
| 20260509051933 | 67 | 69 | 1.0 | 4.0 | 0.01 | 0.54 | 0.04 | 96 | 990.2 |
| 20260509050933 | 67 | 61 | 2.0 | 4.0 | 0.04 | 0.54 | 0.04 | 96 | 990.4 |
| 20260509045934 | 67 | 71 | 2.0 | 3.0 | 0.04 | 0.54 | 0.04 | 95 | 991.1 |
| 20260509044932 | 67 | 207 | 2.0 | 4.0 | 0.04 | 0.54 | 0.04 | 95 | 991.3 |
| 20260509043932 | 67 | 53 | 2.0 | 5.0 | 0.06 | 0.54 | 0.04 | 94 | 991.1 |
| 20260509042931 | 67 | 49 | 4.0 | 7.0 | 0.11 | 0.54 | 0.04 | 94 | 991.3 |
| 20260509040930 | 67 | 34 | 2.0 | 4.0 | 0.27 | 0.50 | 0.00 | 93 | 991.4 |
| 20260509035931 | 67 | 52 | 5.0 | 7.0 | 0.31 | 0.50 | 0.50 | 92 | 991.3 |
| 20260509034931 | 67 | 45 | 4.0 | 13.0 | 0.34 | 0.50 | 0.50 | 92 | 990.9 |
| 20260509033930 | 67 | 234 | 7.0 | 21.0 | 0.37 | 0.48 | 0.48 | 91 | 990.9 |
| 20260509031930 | 69 | 328 | 4.0 | 9.0 | 0.13 | 0.24 | 0.24 | 92 | 991.5 |
| 20260509030930 | 70 | 343 | 4.0 | 11.0 | 0.12 | 0.23 | 0.23 | 92 | 992.1 |
| 20260509025927 | 71 | 338 | 4.0 | 8.0 | 0.07 | 0.19 | 0.19 | 92 | 992.6 |
| 20260509024924 | 71 | 1 | 3.0 | 9.0 | 0.04 | 0.16 | 0.16 | 93 | 992.7 |
| 20260509023924 | 71 | 310 | 5.0 | 11.0 | 0.00 | 0.11 | 0.11 | 93 | 994.1 |
| 20260509022924 | 72 | 322 | 4.0 | 9.0 | 0.00 | 0.11 | 0.11 | 93 | 994.6 |
| 20260509021924 | 72 | 334 | 3.0 | 7.0 | 0.00 | 0.11 | 0.11 | 94 | 994.7 |
| 20260509020924 | 72 | 2 | 3.0 | 6.0 | 0.00 | 0.11 | 0.11 | 94 | 994.6 |
| 20260509015924 | 72 | 356 | 3.0 | 6.0 | 0.00 | 0.11 | 0.11 | 94 | 994.4 |
| 20260509014924 | 72 | 29 | 3.0 | 8.0 | 0.00 | 0.11 | 0.11 | 94 | 993.9 |
| 20260509013924 | 72 | 7 | 3.0 | 6.0 | 0.00 | 0.11 | 0.11 | 93 | 993.1 |
| 20260509013405 | 72 | 35 | 3.0 | 5.0 | 0.01 | 0.11 | 0.11 | 93 | 992.7 |
| 20260509011923 | 71 | 42 | 3.0 | 5.0 | 0.11 | 0.11 | 0.11 | 93 | 992.1 |
| 20260509010924 | 72 | 63 | 3.0 | 6.0 | 0.11 | 0.11 | 0.11 | 92 | 991.9 |
| 20260509010400 | 72 | 30 | 3.0 | 5.0 | 0.11 | 0.11 | 0.11 | 92 | 991.8 |
| 20260509004924 | 72 | 45 | 4.0 | 6.0 | 0.11 | 0.11 | 0.11 | 91 | 991.7 |
| 20260509003923 | 72 | 17 | 3.0 | 6.0 | 0.11 | 0.11 | 0.11 | 90 | 991.7 |
| 20260509002923 | 73 | 49 | 3.0 | 8.0 | 0.09 | 0.09 | 0.09 | 88 | 991.4 |
| 20260509001922 | 73 | 92 | 3.0 | 6.0 | 0.00 | 0.00 | 0.00 | 88 | 992.8 |
| 20260509000923 | 73 | 44 | 4.0 | 9.0 | 0.00 | 0.00 | 0.00 | 87 | 992.2 |
| 20260509000404 | 73 | 29 | 4.0 | 8.0 | 0.00 | 0.00 | 0.00 | 87 | 991.9 |
| 20260508234923 | 73 | 68 | 5.0 | 9.0 | 0.00 | 0.00 | 0.00 | 86 | 992.1 |
| 20260508233923 | 73 | 54 | 5.0 | 9.0 | 0.00 | 0.00 | 0.00 | 86 | 992.3 |
| 20260508232923 | 73 | 27 | 5.0 | 9.0 | 0.00 | 0.00 | 0.00 | 86 | 992.3 |
| 20260508231924 | 73 | 40 | 6.0 | 9.0 | 0.00 | 0.00 | 0.00 | 85 | 992.5 |
| 20260508231405 | 73 | 39 | 5.0 | 9.0 | 0.00 | 0.00 | 0.00 | 85 | 992.5 |
| 20260508225917 | 73 | 34 | 5.0 | 10.0 | 0.00 | 0.00 | 0.00 | 85 | 992.3 |
| 20260508224918 | 73 | 353 | 6.0 | 9.0 | 0.00 | 0.00 | 0.00 | 84 | 992.7 |
| 20260508224407 | 74 | 50 | 5.0 | 10.0 | 0.00 | 0.00 | 0.00 | 83 | 993.1 |
| 20260508222918 | 74 | 27 | 6.0 | 12.0 | 0.00 | 0.00 | 0.00 | 82 | 993.5 |
| 20260508222358 | 74 | 61 | 6.0 | 10.0 | 0.00 | 0.00 | 0.00 | 80 | 993.1 |
| 20260508221405 | 74 | 37 | 5.0 | 9.0 | 0.00 | 0.00 | 0.00 | 79 | 993.6 |
| 20260508215919 | 74 | 17 | 6.0 | 9.0 | 0.00 | 0.00 | 0.00 | 78 | 993.1 |
| 20260508213914 | 76 | 32 | 5.0 | 9.0 | 0.00 | 0.00 | 0.00 | 76 | 993.7 |
| 20260508212914 | 76 | 52 | 6.0 | 9.0 | 0.00 | 0.00 | 0.00 | 75 | 995.6 |
| 20260508211914 | 76 | 46 | 6.0 | 10.0 | 0.00 | 0.00 | 0.00 | 76 | 996.7 |
| 20260508210913 | 76 | 34 | 6.0 | 14.0 | 0.00 | 0.00 | 0.00 | 76 | 997.0 |
| 20260508205914 | 76 | 23 | 6.0 | 12.0 | 0.00 | 0.00 | 0.00 | 76 | 997.2 |
| 20260508205358 | 76 | 21 | 6.0 | 11.0 | 0.00 | 0.00 | 0.00 | 75 | 998.0 |
| 20260508204353 | 76 | 7 | 6.0 | 10.0 | 0.00 | 0.00 | 0.00 | 74 | 998.3 |
| 20260508202913 | 77 | 29 | 6.0 | 11.0 | 0.00 | 0.00 | 0.00 | 72 | 998.7 |
| 20260508201914 | 76 | 31 | 6.0 | 10.0 | 0.00 | 0.00 | 0.00 | 73 | 999.6 |
| 20260508201355 | 76 | 35 | 6.0 | 11.0 | 0.00 | 0.00 | 0.00 | 74 | 998.9 |
| 20260508195913 | 77 | 20 | 6.0 | 11.0 | 0.00 | 0.00 | 0.00 | 73 | 1001.3 |